Location: Altoona
(40.5167°N, 78.4000°W)
Time: 00:51:23
(UTC-04:00)

Cosmos 1452 Rocket - Pass Details

Date: 21 August 2017
Orbit: 768 x 774 km, 74.1° (Epoch: 23 September)

Event Time Altitude Azimuth Distance (km) Brightness Sun altitude
Rises 20:50:05 0° 210° (SSW) 3,237 6.8 -9.4°
Reaches altitude 10° 20:52:30 10° 215° (SW) 2,314 6.1 -9.8°
Maximum altitude 20:57:39 55° 292° (WNW) 931 4.4 -10.7°
Drops below altitude 10° 21:02:50 10° 10° (N) 2,329 6.2 -11.6°
Sets 21:05:17 0° 15° (NNE) 3,260 6.9 -12.0°
